This is the latest recevied weather packets stored in our database for station/object EA8BQU-10. If no packets are shown the sender has not sent any weather packets the latest 10 day(s).
| Time | Temp. | Humidity | Pressure | Rain* | Wind** | Luminosity | Snow |
|---|---|---|---|---|---|---|---|
| 1777959053 | 21.67° C | 96% | 1015.2 hPa | - | - | - | - |
| 1777958153 | 21.67° C | 96% | 1015.2 hPa | - | - | - | - |
| 1777956353 | 21.67° C | 96% | 1015.4 hPa | - | - | - | - |
| 1777955453 | 21.67° C | 95% | 1015.4 hPa | - | - | - | - |
| 1777954553 | 21.67° C | 95% | 1015.5 hPa | - | - | - | - |
| 1777953653 | 21.67° C | 95% | 1015.4 hPa | - | - | - | - |
| 1777942850 | 22.22° C | 96% | 1017.2 hPa | - | - | - | - |
| 1777926650 | 22.22° C | 95% | 1016.9 hPa | - | - | - | - |
| 1777925752 | 22.22° C | 94% | 1016.8 hPa | - | - | - | - |
| 1777924850 | 22.22° C | 94% | 1016.5 hPa | - | - | - | - |
| 1777919449 | 22.78° C | 90% | 1016.2 hPa | - | - | - | - |
| 1777918549 | 22.78° C | 90% | 1016 hPa | - | - | - | - |
| 1777917649 | 23.33° C | 89% | 1016.2 hPa | - | - | - | - |
| 1777899650 | 22.78° C | 86% | 1017.4 hPa | - | - | - | - |
| 1777897850 | 22.22° C | 89% | 1017.7 hPa | - | - | - | - |
| 1777896049 | 21.67° C | 92% | 1017.8 hPa | - | - | - | - |
| 1777895148 | 21.67° C | 92% | 1017.9 hPa | - | - | - | - |
| 1777894251 | 21.67° C | 95% | 1018 hPa | - | - | - | - |
| 1777893351 | 21.11° C | 96% | 1018 hPa | - | - | - | - |
| 1777892451 | 21.11° C | 95% | 1017.9 hPa | - | - | - | - |
| 1777891551 | 21.11° C | 95% | 1018 hPa | - | - | - | - |
| 1777890651 | 21.11° C | 95% | 1017.9 hPa | - | - | - | - |
| 1777889751 | 21.67° C | 94% | 1018 hPa | - | - | - | - |
| 1777888850 | 21.11° C | 94% | 1018.2 hPa | - | - | - | - |
| 1777887049 | 21.11° C | 94% | 1018 hPa | - | - | - | - |
* Rain since midnight (hover to see other rain measurements)
** Current wind speed in m/s (hover to see current wind gust speed)